This is the latest recevied weather packets stored in our database for station/object KE5AKC. If no packets are shown the sender has not sent any weather packets the latest 10 day(s).
| Time | Temp. | Humidity | Pressure | Rain* | Wind** | Luminosity | Snow |
|---|---|---|---|---|---|---|---|
| 1777470507 | 26.67° C | 84% | 1012 hPa | 0 mm | - | 374 W/m² | - |
| 1777470203 | 26.67° C | 85% | 1012.4 hPa | 0 mm | - | 245 W/m² | - |
| 1777469899 | 26.11° C | 86% | 1012.4 hPa | 0 mm | - | 175 W/m² | - |
| 1777469595 | 26.11° C | 87% | 1012 hPa | 0 mm | - | 174 W/m² | - |
| 1777469295 | 25.56° C | 88% | 1012 hPa | 0 mm | - | 227 W/m² | - |
| 1777468991 | 25.56° C | 88% | 1012.4 hPa | 0 mm | - | 182 W/m² | - |
| 1777468691 | 25° C | 89% | 1012 hPa | 0 mm | - | 142 W/m² | - |
| 1777468388 | 25° C | 89% | 1011.7 hPa | 0 mm | - | 111 W/m² | - |
| 1777468084 | 25° C | 90% | 1012 hPa | 0 mm | - | 71 W/m² | - |
| 1777467780 | 25° C | 90% | 1012 hPa | 0 mm | - | 93 W/m² | - |
| 1777467475 | 25° C | 90% | 1012.4 hPa | 0 mm | - | 66 W/m² | - |
| 1777467171 | 25° C | 90% | 1012.4 hPa | 0 mm | - | 70 W/m² | - |
| 1777466869 | 24.44° C | 91% | 1012.4 hPa | 0 mm | - | 58 W/m² | - |
| 1777466567 | 24.44° C | 91% | 1012.4 hPa | 0 mm | - | 43 W/m² | - |
| 1777466263 | 24.44° C | 91% | 1012 hPa | 0 mm | - | 39 W/m² | - |
| 1777465959 | 24.44° C | 91% | 1012 hPa | 0 mm | - | 24 W/m² | - |
| 1777465656 | 24.44° C | 91% | 1012 hPa | 0 mm | - | 15 W/m² | - |
| 1777465351 | 24.44° C | 92% | 1011.7 hPa | 0 mm | - | 17 W/m² | - |
| 1777465050 | 24.44° C | 92% | 1011.7 hPa | 0 mm | - | 22 W/m² | - |
| 1777464745 | 24.44° C | 92% | 1012 hPa | 0 mm | - | 23 W/m² | - |
| 1777464442 | 23.89° C | 93% | 1012 hPa | 0 mm | - | 23 W/m² | - |
| 1777464138 | 23.89° C | 93% | 1011.7 hPa | 0 mm | - | 24 W/m² | - |
| 1777463837 | 23.89° C | 93% | 1011.7 hPa | 0 mm | - | 16 W/m² | - |
| 1777463532 | 23.89° C | 93% | 1011.7 hPa | 0 mm | - | 12 W/m² | - |
| 1777463228 | 23.89° C | 93% | 1011.3 hPa | 0 mm | - | 8 W/m² | - |
* Rain latest hour (hover to see other rain measurements)
** Current wind speed in m/s (hover to see current wind gust speed)